User: anonymous   Login
Location: Unspecified
(0.0000°N, 0.0000°E)
Time: 21:09:48
(UTC+02:00)
Language:

GP-B - Orbit

View from above orbital plane
View from above orbital plane
View from above satellite
View from above satellite

Ground track
Ground track

The orbit data is extracted from the following two-line orbital elements,

1 28230U 04014A   17177.83963574 +.00000114 +00000-0 +13356-4 0  9990
2 28230 089.8481 121.8521 0003233 097.3479 262.8111 14.78544202710528
Epoch (UTC): 26 June 2017 20:09:04
Eccentricity: 0.0003233
inclination: 89.8481°
perigee height: 631 km
apogee height: 636 km
right ascension of ascending node: 121.8521°
argument of perigee: 97.3479°
revolutions per day: 14.78544202
mean anomaly at epoch: 262.8111°
orbit number at epoch: 71052

The dashed part of the orbit path shows where the satellite is in the earth's shadow,  

DLR